Merrill, WI

2:39 PM CDT on March 27, 2017 (GMT -0500)
Merrill Municipal

Weather History for KRRL - February, 2013

Change the Weather History Date:

Friday, February 15, 2013

  Actual Average Record
Temperature  
Mean Temperature 10 °F -  
Max Temperature 19 °F 27 °F 50 °F (1913)
Min Temperature 0 °F 3 °F -30 °F (1906)
Degree Days  
Heating Degree Days 56    
Moisture  
Dew Point 4 °F    
Average Humidity 70    
Maximum Humidity 85    
Minimum Humidity 53    
Precipitation  
Precipitation 0.00 in - - ()
Sea Level Pressure  
Sea Level Pressure 30.10 in    
Wind  
Wind Speed 5 mph (NW)    
Max Wind Speed 12 mph    
Max Gust Speed 18 mph    
Visibility 10 miles    
Events      
Averages and records for this station are not official NWS values.
T = Trace of Precipitation, MM = Missing Value Source: NWS Daily Summary

Daily Weather History Graph

Daily Weather History Graph

Search for Another Location

Airport or City:

Trip Planner

Search our weather history database for the weather conditions in past years. The results will help you decide how hot, cold, wet, or windy it might be!

Date:

Astronomy

Feb. 15, 2013 Rise Set
Actual Time 6:59 AM CST 5:26 PM CST
Civil Twilight 6:29 AM CST 5:57 PM CST
Nautical Twilight 5:54 AM CST 6:31 PM CST
Astronomical Twilight 5:20 AM CST 7:05 PM CST
Moon 9:17 AM CST (2/15) 11:47 PM CST (2/15)
Length of Visible Light 11h 27m
Length of Day
10h 27m
Waxing Crescent, 30% of the Moon is Illuminated
Feb 15
Waxing Crescent
Feb 17
First Quarter
Feb 25
Full
Mar 4
Last Quarter
Mar 11
New

Hourly Weather History & Observations

Time (CST) Temp. Windchill Dew Point Humidity Pressure Visibility Wind Dir Wind Speed Gust Speed Precip Events Conditions
12:15 AM 14.0 °F 2.9 °F 8.6 °F 79% 30.02 in 10.0 mi NW 8.1 mph - N/A   Scattered Clouds
12:35 AM 14.0 °F 5.1 °F 6.8 °F 73% 30.02 in 10.0 mi NW 5.8 mph - N/A   Clear
12:55 AM 14.0 °F 5.1 °F 6.8 °F 73% 30.02 in 10.0 mi NW 5.8 mph - N/A   Clear
1:15 AM 14.0 °F 8.2 °F 6.8 °F 73% 30.02 in 10.0 mi NW 3.5 mph - N/A   Clear
1:35 AM 12.2 °F 6.1 °F 5.0 °F 73% 30.02 in 10.0 mi NW 3.5 mph - N/A   Clear
1:55 AM 12.2 °F 6.1 °F 5.0 °F 73% 30.03 in 10.0 mi NW 3.5 mph - N/A   Clear
2:15 AM 12.2 °F 6.1 °F 5.0 °F 73% 30.03 in 10.0 mi NW 3.5 mph - N/A   Clear
2:35 AM 10.4 °F 4.0 °F 5.0 °F 79% 30.04 in 10.0 mi WNW 3.5 mph - N/A   Clear
2:55 AM 10.4 °F 4.0 °F 5.0 °F 79% 30.04 in 10.0 mi WNW 3.5 mph - N/A   Clear
3:15 AM 10.4 °F 4.0 °F 3.2 °F 73% 30.04 in 10.0 mi NW 3.5 mph - N/A   Clear
3:35 AM 8.6 °F 2.0 °F 3.2 °F 79% 30.04 in 10.0 mi NW 3.5 mph - N/A   Clear
3:55 AM 8.6 °F 2.0 °F 3.2 °F 79% 30.04 in 10.0 mi WNW 3.5 mph - N/A   Clear
4:15 AM 8.6 °F - 3.2 °F 79% 30.05 in 10.0 mi Calm Calm - N/A   Clear
4:35 AM 8.6 °F 0.1 °F 3.2 °F 79% 30.06 in 10.0 mi WNW 4.6 mph - N/A   Clear
4:55 AM 8.6 °F -1.3 °F 3.2 °F 79% 30.06 in 10.0 mi WNW 5.8 mph - N/A   Scattered Clouds
5:15 AM 8.6 °F 2.0 °F 3.2 °F 79% 30.07 in 10.0 mi WNW 3.5 mph - N/A   Mostly Cloudy
5:35 AM 6.8 °F -0.1 °F 3.2 °F 85% 30.07 in 10.0 mi West 3.5 mph - N/A   Overcast
5:55 AM 5.0 °F -2.1 °F 1.4 °F 85% 30.07 in 10.0 mi West 3.5 mph - N/A   Overcast
6:15 AM 5.0 °F -4.1 °F 1.4 °F 85% 30.08 in 10.0 mi West 4.6 mph - N/A   Overcast
6:35 AM 5.0 °F -5.6 °F 1.4 °F 85% 30.08 in 10.0 mi West 5.8 mph - N/A   Overcast
6:55 AM 6.8 °F -2.0 °F 3.2 °F 85% 30.08 in 10.0 mi West 4.6 mph - N/A   Overcast
7:15 AM 8.6 °F 2.0 °F 3.2 °F 79% 30.09 in 10.0 mi WNW 3.5 mph - N/A   Overcast
7:35 AM 8.6 °F - 3.2 °F 79% 30.09 in 10.0 mi Calm Calm - N/A   Overcast
7:55 AM 8.6 °F - 3.2 °F 79% 30.10 in 10.0 mi Calm Calm - N/A   Overcast
8:15 AM 8.6 °F - 3.2 °F 79% 30.11 in 10.0 mi Calm Calm - N/A   Overcast
8:35 AM 10.4 °F - 5.0 °F 79% 30.11 in 10.0 mi Calm Calm - N/A   Overcast
8:55 AM 10.4 °F - 5.0 °F 79% 30.11 in 10.0 mi Calm Calm - N/A   Overcast
9:15 AM 12.2 °F 6.1 °F 5.0 °F 73% 30.11 in 10.0 mi WNW 3.5 mph - N/A   Overcast
9:35 AM 14.0 °F 5.1 °F 5.0 °F 67% 30.11 in 10.0 mi NNW 5.8 mph - N/A   Overcast
9:55 AM 14.0 °F 5.1 °F 5.0 °F 67% 30.11 in 10.0 mi NNW 5.8 mph - N/A   Overcast
10:15 AM 17.6 °F 9.3 °F 5.0 °F 58% 30.11 in 10.0 mi NNW 5.8 mph - N/A   Scattered Clouds
10:35 AM 17.6 °F 9.3 °F 6.8 °F 63% 30.11 in 10.0 mi NW 5.8 mph - N/A   Clear
10:55 AM 17.6 °F 8.2 °F 5.0 °F 58% 30.10 in 10.0 mi NW 6.9 mph - N/A   Clear
11:15 AM 17.6 °F 6.4 °F 5.0 °F 58% 30.10 in 10.0 mi NW 9.2 mph - N/A   Scattered Clouds
11:35 AM 19.4 °F 9.5 °F 5.0 °F 54% 30.10 in 10.0 mi NW 8.1 mph - N/A   Scattered Clouds
11:55 AM 19.4 °F 9.5 °F 5.0 °F 54% 30.10 in 10.0 mi WNW 8.1 mph - N/A   Mostly Cloudy
12:15 PM 19.4 °F 12.8 °F 5.0 °F 54% 30.09 in 10.0 mi NW 4.6 mph - N/A   Mostly Cloudy
12:35 PM 19.4 °F 7.2 °F 5.0 °F 54% 30.09 in 10.0 mi NW 11.5 mph - N/A   Scattered Clouds
12:55 PM 19.4 °F 7.2 °F 5.0 °F 54% 30.09 in 10.0 mi WNW 11.5 mph - N/A   Mostly Cloudy
1:15 PM 19.4 °F 7.2 °F 5.0 °F 54% 30.08 in 10.0 mi WNW 11.5 mph 18.4 mph N/A   Mostly Cloudy
1:35 PM 19.4 °F 7.9 °F 5.0 °F 54% 30.08 in 10.0 mi NW 10.4 mph - N/A   Overcast
1:55 PM 19.4 °F 10.4 °F 5.0 °F 54% 30.08 in 10.0 mi WNW 6.9 mph - N/A   Mostly Cloudy
2:15 PM 17.6 °F 5.0 °F 5.0 °F 58% 30.09 in 10.0 mi NNW 11.5 mph - N/A   Overcast
2:35 PM 17.6 °F 8.2 °F 5.0 °F 58% 30.09 in 10.0 mi NW 6.9 mph - N/A   Overcast
2:55 PM 17.6 °F 9.3 °F 5.0 °F 58% 30.09 in 10.0 mi NNW 5.8 mph - N/A   Overcast
3:15 PM 17.6 °F 6.4 °F 5.0 °F 58% 30.09 in 10.0 mi NNW 9.2 mph - N/A   Overcast
3:35 PM 17.6 °F 9.3 °F 3.2 °F 53% 30.10 in 10.0 mi NW 5.8 mph - N/A   Overcast
3:55 PM 17.6 °F 5.7 °F 3.2 °F 53% 30.11 in 10.0 mi NW 10.4 mph - N/A   Overcast
4:15 PM 17.6 °F 5.0 °F 3.2 °F 53% 30.12 in 10.0 mi NNW 11.5 mph - N/A   Overcast
4:35 PM 15.8 °F 7.2 °F 3.2 °F 58% 30.12 in 10.0 mi NNW 5.8 mph - N/A   Overcast
4:55 PM 15.8 °F 5.1 °F 3.2 °F 58% 30.12 in 10.0 mi NNW 8.1 mph - N/A   Overcast
5:15 PM 15.8 °F 5.1 °F 3.2 °F 58% 30.13 in 10.0 mi NNW 8.1 mph - N/A   Overcast
5:35 PM 15.8 °F 10.2 °F 3.2 °F 58% 30.13 in 10.0 mi NNW 3.5 mph - N/A   Overcast
5:55 PM 14.0 °F 2.9 °F 3.2 °F 62% 30.13 in 10.0 mi North 8.1 mph - N/A   Overcast
6:15 PM 14.0 °F 8.2 °F 3.2 °F 62% 30.13 in 10.0 mi North 3.5 mph - N/A   Overcast
6:35 PM 14.0 °F 5.1 °F 3.2 °F 62% 30.14 in 10.0 mi North 5.8 mph - N/A   Overcast
6:55 PM 14.0 °F 2.9 °F 1.4 °F 57% 30.14 in 10.0 mi North 8.1 mph - N/A   Overcast
7:15 PM 12.2 °F 2.9 °F 1.4 °F 62% 30.15 in 10.0 mi North 5.8 mph - N/A   Overcast
7:35 PM 12.2 °F -0.2 °F 3.2 °F 67% 30.15 in 10.0 mi North 9.2 mph - N/A   Overcast
7:55 PM 10.4 °F 4.0 °F 3.2 °F 73% 30.15 in 10.0 mi North 3.5 mph - N/A   Overcast
8:15 PM 8.6 °F 2.0 °F 3.2 °F 79% 30.16 in 10.0 mi North 3.5 mph - N/A   Overcast
8:35 PM 8.6 °F - 3.2 °F 79% 30.16 in 10.0 mi Calm Calm - N/A   Mostly Cloudy
8:55 PM 8.6 °F - 3.2 °F 79% 30.16 in 10.0 mi Calm Calm - N/A   Scattered Clouds
9:15 PM 5.0 °F - 1.4 °F 85% 30.15 in 10.0 mi Calm Calm - N/A   Clear
9:35 PM 5.0 °F - 1.4 °F 85% 30.15 in 10.0 mi Calm Calm - N/A   Clear
9:55 PM 3.2 °F - -0.4 °F 85% 30.15 in 10.0 mi Calm Calm - N/A   Scattered Clouds
10:15 PM 5.0 °F - 1.4 °F 85% 30.15 in 10.0 mi Calm Calm - N/A   Clear
10:35 PM 5.0 °F - -0.4 °F 78% 30.14 in 10.0 mi Calm Calm - N/A   Clear
10:55 PM 5.0 °F - -0.4 °F 78% 30.14 in 10.0 mi Calm Calm - N/A   Clear
11:15 PM 5.0 °F - -0.4 °F 78% 30.13 in 10.0 mi Calm Calm - N/A   Clear
11:35 PM -0.4 °F - -4.0 °F 85% 30.13 in 10.0 mi Calm Calm - N/A   Clear
11:55 PM 1.4 °F - -4.0 °F 78% 30.13 in 10.0 mi Calm Calm - N/A   Clear